Flag for U.S.A. Weather past 2 weeks in Oberlin, Ohio, U.S.A.

Now
20 °F

Clear.


Feels Like: 11 °F
Forecast: 23 / 37 °F
Wind: 7 mph from South

Location: Lorain County Regional Airport

Current Time: Jan 28, 2015 at 8:13:45 PM

Latest Report: Jan 28, 2015 at 7:53 PM


Visibility: 10 mi

Pressure: 30.33 "Hg

Humidity: 62%

Dew point: 9 °F

Location of OberlinLocation

Historic Weather in Oberlin — Graph

°F

Oberlin temperature yesterday

Maximum temperature yesterday: 20 °F (at 12:53 AM)
Minimum temperature yesterday: 15 °F (at 11:53 PM)
Average temperature yesterday: 18 °F

Past Weeks' High & Low Weather Summary

 TemperatureHumidityPressure
High45 °F (Jan 17, 3:53 PM)100% (Jan 14, 11:53 AM)30.59 "Hg (Jan 14, 11:53 AM)
Low-12 °F (Jan 14, 6:53 AM)49% (Jan 17, 11:53 PM)29.61 "Hg (Jan 24, 2:53 PM)
Average24 °F82%30.06 "Hg
* Reported Jan 13 6:53 PM — Jan 28 6:53 PM, Oberlin, Weather by CustomWeather, © 2014

Note: Actual official high and low records may vary slightly from our data, if they occured in-between our weather recording intervals... More about our weather records

Advertising

Oberlin weather history for previous 24 hours

 ConditionsComfort  
Time TempWeatherWind HumidityBarometerVisibility
6:53 PM
Jan 28
21 °FClear.7 mph65%30.32 "Hg10 mi
5:53 PM22 °FClear.8 mph60%30.32 "Hg10 mi
4:53 PM24 °FSunny.7 mph60%30.34 "Hg10 mi
3:53 PM25 °FSunny.6 mph63%30.34 "Hg10 mi
2:53 PM24 °FSunny.6 mph65%30.35 "Hg10 mi
1:53 PM24 °FSunny.No wind65%30.37 "Hg10 mi
12:53 PM21 °FSunny.7 mph71%30.38 "Hg10 mi
11:53 AM18 °FSunny.3 mph84%30.40 "Hg10 mi
10:53 AM14 °FSunny.3 mph100%30.41 "Hg7 mi
9:53 AM10 °FIce fog.No wind92%30.41 "Hg6 mi
8:53 AM7 °FIce fog.5 mph91%30.41 "Hg6 mi
7:53 AM1 °FIce fog.5 mph92%30.41 "Hg6 mi
6:53 AM2 °FClear.No wind83%30.37 "Hg9 mi
5:53 AM2 °FClear.5 mph92%30.34 "Hg7 mi
4:53 AM1 °FClear.3 mph92%30.32 "Hg8 mi
3:53 AM3 °FClear.5 mph95%30.30 "Hg8 mi
2:53 AM8 °FClear.3 mph91%30.28 "Hg10 mi
1:53 AM9 °FClear.5 mph91%30.26 "Hg10 mi
12:53 AM10 °FClear.6 mph88%30.24 "Hg10 mi
11:53 PM
Jan 27
15 °FClear.7 mph83%30.23 "Hg10 mi
10:53 PM16 °FClear.7 mph80%30.22 "Hg10 mi
9:53 PM16 °FClear.7 mph84%30.22 "Hg10 mi
8:53 PM18 °FPassing clouds.14 mph80%30.22 "Hg10 mi
Weather by CustomWeather, © 2014

See weather overviewHow to use our weather pages